User: anonymous   Login
Location: Holmes Observatory
(37.1039°N, 122.0513°W)
Time: 17:58:55
(UTC-07:00)
Language:

Cosmos 921 Rocket - Orbit

View from above orbital plane
View from above orbital plane
View from above satellite
View from above satellite

Ground track
Ground track

The orbit data is extracted from the following two-line orbital elements,

1 10096U 77055B   16237.35888073  .00000078  00000-0  10519-4 0  9996
2 10096  75.8355 166.8002 0043651 243.2312 116.4410 14.88486033118080
Epoch (UTC): 24 August 2016 08:36:47
Eccentricity: 0.0043651
inclination: 75.8355°
perigee height: 572 km
apogee height: 633 km
right ascension of ascending node: 166.8002°
argument of perigee: 243.2312°
revolutions per day: 14.88486033
mean anomaly at epoch: 116.4410°
orbit number at epoch: 11808

The dashed part of the orbit path shows where the satellite is in the earth's shadow,  

DLR